Voltar ao catálogo

ATLAS 41E DEB

AtivoLEO
NORAD 15615·DEBRIS·🇺🇸 United States

Lançado Mar 13, 1985 de Vandenberg Space Force Base

Loading…

Próximas Passagens (próximas 24 horas)

TLE

AtualizadoSource: Space-Track

Época: Sep 14, 2026, 12:42 UTC

1 15615U 85021E   26257.52944619  .00000493  00000-0  15416-3 0  9992
2 15615 107.8296 101.6958 0039808 151.2283 231.9328 14.52720132181132

Acompanhe ATLAS 41E DEB em tempo real com AllMySat

Download on the App Store